FDX49QL GCXO-GCLA

Flight info

Callsign FDX49QL
Flight time 0h 21m
Altitude 14000
Route ARACO
Aircraft B738/M-SDE2E3FGHIRWXY/LB1

Departure

Time 2026-05-08 13:13
Airport Tenerife Norte-Ciudad de La Laguna Airport (GCXO)

Arrival

Time 2026-05-08 13:35
Airport La Palma Airport (GCLA)
Time Latitude Longitude Altitude Speed Heading
2026-05-08 12:54 28.48713 -16.34783 2035 ft 0 kts 52°
2026-05-08 13:06 28.48712 -16.34784 2069 ft 2 kts 52°
2026-05-08 13:06 28.48702 -16.34799 2070 ft 2 kts 51°
2026-05-08 13:06 28.48691 -16.34813 2070 ft 2 kts 51°
2026-05-08 13:07 28.48682 -16.34828 2070 ft 2 kts 65°
2026-05-08 13:07 28.48679 -16.34845 2070 ft 1 kts 129°
2026-05-08 13:07 28.48683 -16.34851 2070 ft 0 kts 141°
2026-05-08 13:09 28.48670 -16.34838 2070 ft 10 kts 141°
2026-05-08 13:09 28.48586 -16.34722 2069 ft 28 kts 123°
2026-05-08 13:09 28.48493 -16.34484 2065 ft 35 kts 110°
2026-05-08 13:10 28.48405 -16.34227 2061 ft 36 kts 111°
2026-05-08 13:10 28.48307 -16.33927 2051 ft 42 kts 110°
2026-05-08 13:10 28.48203 -16.33611 2042 ft 43 kts 110°
2026-05-08 13:10 28.48128 -16.33387 2037 ft 21 kts 109°
2026-05-08 13:11 28.48077 -16.33231 2026 ft 21 kts 112°
2026-05-08 13:11 28.48027 -16.33082 2026 ft 22 kts 110°
2026-05-08 13:11 28.47957 -16.32869 2013 ft 36 kts 110°
2026-05-08 13:11 28.47914 -16.32739 2012 ft 5 kts 110°
2026-05-08 13:12 28.47860 -16.32593 2011 ft 22 kts 123°
2026-05-08 13:12 28.47749 -16.32565 2008 ft 15 kts 257°
2026-05-08 13:12 28.47803 -16.32762 2011 ft 60 kts 290°
2026-05-08 13:12 28.48051 -16.33510 2040 ft 139 kts 290°
2026-05-08 13:13 28.48470 -16.34737 2445 ft 179 kts 292°
2026-05-08 13:13 28.49017 -16.36091 3416 ft 201 kts 295°
2026-05-08 13:13 28.49693 -16.37574 4295 ft 226 kts 297°
2026-05-08 13:13 28.50476 -16.39259 5144 ft 252 kts 293°
2026-05-08 13:14 28.51176 -16.41117 6287 ft 263 kts 291°
2026-05-08 13:14 28.51904 -16.43090 7340 ft 273 kts 291°
2026-05-08 13:14 28.52427 -16.45181 8429 ft 278 kts 278°
2026-05-08 13:14 28.52830 -16.47350 9595 ft 283 kts 283°
2026-05-08 13:15 28.53409 -16.49492 10738 ft 284 kts 285°
2026-05-08 13:15 28.54066 -16.51628 11757 ft 288 kts 285°
2026-05-08 13:15 28.54326 -16.53873 12713 ft 289 kts 264°
2026-05-08 13:15 28.53855 -16.56099 13626 ft 297 kts 250°
2026-05-08 13:16 28.52734 -16.58175 13979 ft 324 kts 230°
2026-05-08 13:16 28.51153 -16.60147 14019 ft 350 kts 240°
2026-05-08 13:16 28.50330 -16.62825 14058 ft 373 kts 262°
2026-05-08 13:16 28.50094 -16.65866 14046 ft 398 kts 266°
2026-05-08 13:17 28.49921 -16.68990 14021 ft 386 kts 266°
2026-05-08 13:17 28.49740 -16.71945 14014 ft 363 kts 265°
2026-05-08 13:17 28.49543 -16.74691 14011 ft 342 kts 264°
2026-05-08 13:17 28.49334 -16.77314 14008 ft 324 kts 264°
2026-05-08 13:18 28.49127 -16.79792 14011 ft 307 kts 264°
2026-05-08 13:18 28.48928 -16.82155 13942 ft 294 kts 264°
2026-05-08 13:18 28.48736 -16.84412 13851 ft 278 kts 264°
2026-05-08 13:18 28.48550 -16.86539 13708 ft 262 kts 264°
2026-05-08 13:19 28.48371 -16.88579 13265 ft 257 kts 264°
2026-05-08 13:19 28.48193 -16.90601 12720 ft 257 kts 264°
2026-05-08 13:19 28.48018 -16.92598 12210 ft 256 kts 264°
2026-05-08 13:19 28.47840 -16.94609 11738 ft 255 kts 264°
2026-05-08 13:20 28.47664 -16.96608 11255 ft 254 kts 264°
2026-05-08 13:20 28.47488 -16.98600 10787 ft 253 kts 264°
2026-05-08 13:20 28.47313 -17.00584 10316 ft 252 kts 264°
2026-05-08 13:20 28.47138 -17.02565 9850 ft 251 kts 264°
2026-05-08 13:21 28.46963 -17.04537 9343 ft 250 kts 264°
2026-05-08 13:21 28.46788 -17.06505 8828 ft 250 kts 264°
2026-05-08 13:21 28.46614 -17.08468 8343 ft 249 kts 264°
2026-05-08 13:21 28.46442 -17.10401 7843 ft 250 kts 264°
2026-05-08 13:22 28.46266 -17.12373 7357 ft 250 kts 265°
2026-05-08 13:22 28.46090 -17.14341 6886 ft 250 kts 265°
2026-05-08 13:22 28.45914 -17.16310 6399 ft 251 kts 265°
2026-05-08 13:22 28.45737 -17.18292 5944 ft 250 kts 265°
2026-05-08 13:23 28.45561 -17.20258 5314 ft 255 kts 265°
2026-05-08 13:23 28.45378 -17.22308 4630 ft 265 kts 265°
2026-05-08 13:23 28.45188 -17.24414 4209 ft 268 kts 265°
2026-05-08 13:23 28.44999 -17.26514 3892 ft 266 kts 264°
2026-05-08 13:24 28.44814 -17.28565 3614 ft 264 kts 264°
2026-05-08 13:24 28.44626 -17.30638 3540 ft 263 kts 264°
2026-05-08 13:24 28.44439 -17.32700 3498 ft 260 kts 264°
2026-05-08 13:24 28.44254 -17.34739 3502 ft 259 kts 264°
2026-05-08 13:25 28.44068 -17.36777 3507 ft 258 kts 264°
2026-05-08 13:25 28.43885 -17.38798 3492 ft 255 kts 264°
2026-05-08 13:25 28.43705 -17.40773 3493 ft 253 kts 264°
2026-05-08 13:25 28.43524 -17.42744 3495 ft 250 kts 264°
2026-05-08 13:26 28.43342 -17.44731 3501 ft 256 kts 264°
2026-05-08 13:26 28.43235 -17.46752 3507 ft 258 kts 269°
2026-05-08 13:26 28.43211 -17.48787 3402 ft 258 kts 270°
2026-05-08 13:26 28.43196 -17.50823 3132 ft 257 kts 270°
2026-05-08 13:27 28.43176 -17.52842 3011 ft 251 kts 269°
2026-05-08 13:27 28.43151 -17.54799 3001 ft 245 kts 269°
2026-05-08 13:27 28.43122 -17.56747 2998 ft 251 kts 269°
2026-05-08 13:27 28.43092 -17.58742 3019 ft 250 kts 269°
2026-05-08 13:28 28.43063 -17.60605 3035 ft 231 kts 269°
2026-05-08 13:28 28.43038 -17.62384 2913 ft 216 kts 269°
2026-05-08 13:28 28.43015 -17.64044 2785 ft 204 kts 269°
2026-05-08 13:28 28.42994 -17.65614 2623 ft 194 kts 270°
2026-05-08 13:29 28.42973 -17.67113 2474 ft 184 kts 270°
2026-05-08 13:29 28.42953 -17.68515 2386 ft 171 kts 269°
2026-05-08 13:29 28.42935 -17.69815 2378 ft 162 kts 269°
2026-05-08 13:29 28.42916 -17.71112 2404 ft 170 kts 269°
2026-05-08 13:30 28.42897 -17.72451 2394 ft 171 kts 270°
2026-05-08 13:30 28.43005 -17.73785 2366 ft 171 kts 292°
2026-05-08 13:30 28.43753 -17.74812 2381 ft 174 kts 324°
2026-05-08 13:30 28.44917 -17.75180 2390 ft 178 kts 354°
2026-05-08 13:31 28.46162 -17.75215 2389 ft 181 kts 353°
2026-05-08 13:31 28.47426 -17.75257 2374 ft 181 kts 354°
2026-05-08 13:31 28.48655 -17.75285 2328 ft 171 kts 354°
2026-05-08 13:31 28.49844 -17.75310 2081 ft 169 kts 353°
2026-05-08 13:32 28.51044 -17.75336 2019 ft 174 kts 354°
2026-05-08 13:32 28.52252 -17.75359 1921 ft 174 kts 354°
2026-05-08 13:32 28.53457 -17.75382 1770 ft 172 kts 353°
2026-05-08 13:32 28.54640 -17.75405 1532 ft 166 kts 354°
2026-05-08 13:33 28.55768 -17.75425 1336 ft 157 kts 353°
2026-05-08 13:33 28.56840 -17.75447 1118 ft 154 kts 353°
2026-05-08 13:33 28.57904 -17.75468 924 ft 155 kts 352°
2026-05-08 13:33 28.58982 -17.75490 730 ft 153 kts 354°
2026-05-08 13:34 28.60064 -17.75510 521 ft 155 kts 357°
2026-05-08 13:34 28.61176 -17.75533 302 ft 156 kts 357°
2026-05-08 13:34 28.62239 -17.75548 114 ft 145 kts
2026-05-08 13:34 28.63158 -17.75572 83 ft 114 kts 359°
2026-05-08 13:35 28.63565 -17.75548 76 ft 26 kts
2026-05-08 13:35 28.63550 -17.75585 75 ft 27 kts 173°
2026-05-08 13:35 28.63295 -17.75564 83 ft 43 kts 177°
2026-05-08 13:35 28.62969 -17.75552 87 ft 50 kts 178°
2026-05-08 13:36 28.62624 -17.75528 96 ft 40 kts 141°
2026-05-08 13:36 28.62351 -17.75432 101 ft 43 kts 178°
2026-05-08 13:36 28.62257 -17.75404 102 ft 0 kts 108°
2026-05-08 13:36 28.62249 -17.75371 102 ft 3 kts 91°
2026-05-08 13:37 28.62249 -17.75368 103 ft 0 kts 89°